Regional Weather Roundup
Issued by NWS

Home | Current Version | Previous Version | Text Only | Print | Product List | Glossary Off
Versions: 1 2 3 4 5 6 7 8 9 10 11 12 13 14 15 16 17 18 19 20 21 22 23 24 25 26 27 28 29 30 31 32 33 34 35 36 37 38 39 40 41 42 43 44 45 46 47 48 49 50

000
ASUS43 KMKX 171410
RWRWI

WISCONSIN REGIONAL WEATHER ROUNDUP
NATIONAL WEATHER SERVICE MILWAUKEE/SULLIVAN WI
800 AM CST WED JAN 17 2018

NOTE: "FAIR" INDICATES FEW OR NO CLOUDS BELOW 12,000 FEET WITH NO
SIGNIFICANT WEATHER AND/OR OBSTRUCTIONS TO VISIBILITY.

WIZ001-002-006>008-014>016-023>028-171500-
NORTHWEST WISCONSIN

CITY           SKY/WX    TMP DP  RH WIND       PRES   REMARKS
SUPERIOR ARPT  FAIR       5  -3  68 SW13G20   30.19F WCI -11
ASHLAND        FAIR       7  -2  66 SW17      30.17F WCI -12
HAYWARD        FAIR       4  -4  69 SW9       30.23F WCI -10
SIREN          FAIR       5  -3  70 SW10      30.26F WCI -10
CUMBERLAND     FAIR       3  -4  72 SW13      30.26F WCI -14
RICE LAKE      FAIR       1  -4  78 CALM      30.30F
CHETEK         FAIR      -1  -5  83 CALM      30.31F
LADYSMITH      FAIR      -3  -7  83 CALM      30.30F
EAU CLAIRE     FAIR      -1  -5  82 SW7       30.33F WCI -14
MENOMONIE      FAIR       1  -4  76 SW7       30.34F WCI -11
NEW RICHMOND   FAIR       2  -3  78 SW10      30.30F WCI -13
OSCEOLA        FAIR       3  -4  73 S8        30.33F WCI -11
$$

WIZ003>005-009-010-017-018-171500-
NORTH CENTRAL WISCONSIN

CITY           SKY/WX    TMP DP  RH WIND       PRES   REMARKS
MANITOWISH WTR FAIR       4  -4  68 SW9       30.16F WCI -10
ARBOR VITAE    FAIR       7   0  73 SW9       30.17F WCI  -7
WOODRUFF       FAIR       7   0  73 SW9       30.17F WCI  -7
RHINELANDER    FAIR       4  -2  76 SW9       30.20F WCI -10
EAGLE RIVER    FAIR       4  -3  72 SW9       30.16F WCI -10
LAND O LAKES   FAIR       7   0  72 SW9       30.16F WCI  -7
PHILLIPS       FAIR       1  -4  78 SW8       30.22F WCI -13
TOMAHAWK       FAIR       2  -3  78 CALM      30.25F
MEDFORD        FAIR       0  -4  82 SW7       30.27F WCI -13
MERRILL        FAIR       2  -2  80 W6        30.28F WCI  -9
$$

WIZ029-030-035-036-043>047-171500-
CENTRAL WISCONSIN

CITY           SKY/WX    TMP DP  RH WIND       PRES   REMARKS
WAUSAU         FAIR       2  -2  83 SW7       30.29F WCI -11
MOSINEE        PTCLDY     1   0  92 SW10      30.31F WCI -14
MARSHFIELD     FAIR      -1  -5  82 SW7       30.31F WCI -14
STEVENS POINT  FAIR       1  -3  84 SW9       30.35F WCI -14
WAUPACA        FAIR       6   0  76 SW9       30.38F WCI  -8
WAUTOMA        FAIR       3  -1  83 SW8       30.40F WCI -10
WISC RAPIDS    FAIR       0  -5  79 SW7       30.38F WCI -13
CAMP DOUGLAS   MOCLDY     3  -2  78 CALM      30.40S
$$

WIZ011>013-019>022-031-037>040-048>050-171500-
NORTHEAST WISCONSIN

CITY           SKY/WX    TMP DP  RH WIND       PRES   REMARKS
ANTIGO         FAIR       3  -2  80 W13       30.24F WCI -15
SHAWANO        FAIR       7   1  76 SW9       30.32F WCI  -6
OCONTO         FAIR       7   1  76 W12       30.32F WCI  -8
STURGEON BAY   MOCLDY     7   2  80 SW17      30.30F WCI -12
GREEN BAY      FAIR       6   0  76 SW10      30.35F WCI  -9
MANITOWOC      MOCLDY     9   3  77 W14G24    30.37F WCI  -7
APPLETON       MOCLDY     3  -2  78 SW10      30.35F WCI -12
CLINTONVILLE   FAIR       5   0  78 SW9       30.34F WCI  -9
OSHKOSH        FAIR       5   1  83 SW5       30.38F WCI  -4
$$

WIZ032>034-041-042-053>061-171500-
SOUTHWEST WISCONSIN

CITY           SKY/WX    TMP DP  RH WIND       PRES   REMARKS
LA CROSSE      FAIR       0  -6  76 S8        30.44F WCI -14
SPARTA         FAIR       0  -3  87 CALM      30.42F
VIROQUA        FAIR      -1  -3  90 SW7       30.39F WCI -14
BOSCOBEL       MOCLDY    -1  -6  79 SW6       30.50F WCI -13
PRAIRIE DU CHI FAIR      -2  -8  77 CALM      30.51F
PLATTEVILLE    FAIR      -3  -6  89 S5        30.48F WCI -14
$$

WIZ056-057-062-063-064-067-068-171500-
SOUTH CENTRAL WISCONSIN

CITY           SKY/WX    TMP DP  RH WIND       PRES   REMARKS
REEDSBURG      FAIR       3  -2  80 SW7       30.44S WCI -10
BARABOO/DELLS  MOCLDY     4   0  85 SW5       30.43R WCI  -6
LONE ROCK      MOCLDY    -3  -6  87 CALM      30.49F
MINERAL POINT  FAIR       1   0  92 W3        30.45F
MADISON        MOCLDY     3  -1  83 VRB3      30.46R
MIDDLETON      CLOUDY     5   0  81 W8        30.45S WCI  -8
WATERTOWN      CLOUDY     2   0  92 CALM      30.44F
MONROE         FAIR       1  -2  85 SW12      30.45F WCI -15
JANESVILLE     PTCLDY    -2  -6  84 SW6       30.49F WCI -14
$$

WIZ051-052-058>065-066-070>072-171500-
SOUTHEAST WISCONSIN

CITY           SKY/WX    TMP DP  RH WIND       PRES   REMARKS
MILWAUKEE      FAIR       6   2  83 SW7       30.45F WCI  -6
WAUKESHA       MOCLDY     3   0  85 SW8       30.45F WCI -10
MILWAUKEE/TIMM MOCLDY     7   0  72 SW7       30.46S WCI  -5
RACINE         FAIR       4   0  83 W6        30.48S WCI  -7
BURLINGTON     FAIR       1  -3  81 SW6       30.47F WCI -10
KENOSHA        FAIR       3  -2  79 W10       30.47F WCI -12
FOND DU LAC    CLOUDY     6   0  76 SW8       30.41F WCI  -7
SHEBOYGAN      CLOUDY    11   4  73 W12       30.38F WCI  -3
WEST BEND      CLOUDY     7   3  85 W8        30.41S WCI  -6
JUNEAU         CLOUDY     2  -2  85 SW7       30.44S WCI -11
$$

LSZ147-162-171500-
LAKE SUPERIOR

STATION/POSITION TIME  TEMP    WIND        PRES    WAVE
                       AIR SEA DIR/SP/G            HT/PER
                 (UTC) (F)     (DEG/KT/KT) (MB)    (FT/S)
DEVILS ISLAND    1400   13     230/ 23/ 28 1020.7F
SAXON HARBOR     1230   10     200/ 10/ 17 1022.7S
$$

LMZ867-665-643>646-171500-
LAKE MICHIGAN

STATION/POSITION TIME  TEMP    WIND        PRES    WAVE
                       AIR SEA DIR/SP/G            HT/PER
                 (UTC) (F)     (DEG/KT/KT) (MB)    (FT/S)
NORTHPORT PIER   1347    8     250/  6/ 26 1024.0F
KEWAUNEE LAKESHO 1342    9     270/ 10/ 18 1026.3F
SHEBOYGAN LAKESH 1400    9     230/  7/  8 1030.7F
PORT WASHINGTON  1330    8     250/  7/ 13 1031.5F
MILWAUKEE LAKESH 1350   10     250/  9/ 11   N/A
KENOSHA   LAKESH 1400    6     260/ 11/ 14 1031.8
$$

TC  - TEMPERATURE IN CELSIUS
VSB - VISIBILITY IN STATUTE MILES
WCI - WIND CHILL INDEX
HX  - HEAT INDEX





USA.gov is the U.S. government's official web portal to all federal, state and local government web resources and services.